Weather Roundup
Issued by NWS

Home | Current Version | Previous Version | Text Only | Print | Product List | Glossary On
Versions: 1 2 3 4 5 6 7 8 9 10 11 12 13 14 15 16 17 18 19 20 21 22 23 24 25 26 27 28 29 30 31 32 33 34 35 36 37 38 39 40 41 42 43 44 45 46 47 48 49 50
000
NZUS93 KARX 220310
HRRWXR

CURRENT HOURLY OBSERVATIONS ACROSS
MUCH OF THE UPPER MISSISSIPPI VALLEY
NATIONAL WEATHER SERVICE LA CROSSE WI
900 PM CST FRI NOV 21 2014


...SOUTHEAST MINNESOTA...


CITY           SKY/WX    TMP DP  RH WIND       PRES   REMARKS
ROCHESTER      CLOUDY    29  23  78 S26G37    29.96F WCI  14
ROCHESTER/MAYO CLOUDY    31  22  71 S20       29.97F WCI  18
WINONA         CLOUDY    34  23  64 S5        30.02F WCI  30
AUSTIN         CLOUDY    30  25  80 S21G28    29.97F WCI  17
ALBERT LEA     CLOUDY    32  27  80 S16G22    29.95F WCI  21
DODGE CENTER   CLOUDY    30  27  86 S24       29.95S WCI  16
PRESTON        CLOUDY    28  21  74 S20G28    30.00F WCI  15
OWATONNA       MOCLDY    28  25  86 S17       29.94F WCI  16
FARIBAULT      MOCLDY    28  25  86 S14G20    29.93F WCI  17
$$

...ELSEWHERE IN MINNESOTA...


CITY           SKY/WX    TMP DP  RH WIND       PRES   REMARKS
MINNEAPOLIS    CLOUDY    30  22  72 S9        29.92F WCI  22
INTNL FALLS    PTCLDY    27  20  75 S9        29.60F WCI  18
DULUTH         PTCLDY    26  18  71 SW18G26   29.75F WCI  13
RED WING       CLOUDY    32  25  74 S10       29.96F WCI  24
REDWOOD FALLS  MOCLDY    33  27  78 S8        29.86F WCI  26
MANKATO        PTCLDY    30  21  69 S15G22    29.92F WCI  19
WORTHINGTON    CLOUDY    30  27  86 SW21G28   29.88F WCI  17
FAIRMONT       MOCLDY    32  27  80 S18       29.92S WCI  20
$$

...SOUTHWEST WISCONSIN...


CITY           SKY/WX    TMP DP  RH WIND       PRES   REMARKS
LA CROSSE      CLOUDY    32  16  51 S15       30.05F WCI  22
PRAIRIE DU CHI CLOUDY    33  13  43 SE6       30.11F WCI  27
BOSCOBEL       CLOUDY    33  12  41 SW7       30.12F WCI  27
LONE ROCK      CLOUDY    35  11  36 S12       30.13F WCI  27
PLATTEVILLE    CLOUDY    31  15  49 S8        30.13F WCI  24
FORT MC COY    CLOUDY    31  14  50 SW8G16    30.06F WCI  23
CAMP DOUGLAS   CLOUDY    30  13  48 S10       30.05F WCI  21
VIROQUA        CLOUDY    30  15  54 S14G21    30.05F WCI  19
WIS DELLS      CLOUDY    31   8  38 S17G24    30.08F WCI  20
$$

...ELSEWHERE IN WISCONSIN...


CITY           SKY/WX    TMP DP  RH WIND       PRES   REMARKS
MILWAUKEE      CLOUDY    29   6  38 S12       30.19F WCI  19
MADISON        CLOUDY    31  10  41 S15G26    30.14F WCI  20
GREEN BAY      CLOUDY    29  10  45 S16G22    30.10F WCI  17
EAU CLAIRE     MOCLDY    28  18  66 S9        29.97F WCI  19
BLACK RVR FLS  CLOUDY    30  15  53 S7        30.03F WCI  23
MEDFORD        MOCLDY    24  13  62 S12       29.95F WCI  13
WAUSAU         CLOUDY    26  11  52 S15       29.99F WCI  14
WIS RAPIDS     CLOUDY    28   9  44 S12       30.05F WCI  18
MARSHFIELD     CLOUDY    27  12  53 S12       30.00F WCI  17
RICE LAKE      MOCLDY    27  18  70 S12       29.93F WCI  16
$$

...NORTHEAST IOWA...


CITY           SKY/WX    TMP DP  RH WIND       PRES   REMARKS
DECORAH        CLOUDY    30  19  64 S15G25    30.03F WCI  19
MASON CITY     CLOUDY    32  26  78 S17       30.00F WCI  21
CHARLES CITY   CLOUDY    32  23  69 S18       30.03F WCI  20
OELWEIN        CLOUDY    32  21  64 S13       30.08F WCI  22
$$

...ELSEWHERE IN IOWA...


CITY           SKY/WX    TMP DP  RH WIND       PRES   REMARKS
DES MOINES     CLOUDY    37  27  67 S10       30.07F WCI  30
IOWA CITY      CLOUDY    35  21  56 S12       30.15F WCI  27
FORT DODGE     CLOUDY    34  28  80 S16G23    30.01F WCI  23
$$

...NORTHERN ILLINOIS...


CITY           SKY/WX    TMP DP  RH WIND       PRES   REMARKS
CHICAGO-OHARE  CLOUDY    30  10  43 S12       30.24F WCI  20
CHICAGO-MIDWAY CLOUDY    32  12  43 S10       30.26F WCI  24
MOLINE         CLOUDY    36  15  42 S7        30.16F WCI  30
ROCKFORD       CLOUDY    32  11  41 S14       30.21F WCI  22
PEORIA         CLOUDY    37  17  44 S15G21    30.22F WCI  28
$$

NOTE: "FAIR" INDICATES FEW OR NO CLOUDS BELOW 12,000 FEET WITH NO
SIGNIFICANT WEATHER AND/OR OBSTRUCTIONS TO VISIBILITY. WIND
SPEEDS ARE IN MILES-PER-HOUR.



USA.gov is the U.S. government's official web portal to all federal, state and local government web resources and services.